Hampton, VA

4:03 PM EDT on August 28, 2016 (GMT -0400)
Langley Air Force Base

Weather History for KLFI - February, 2012

Change the Weather History Date:

Wednesday, February 29, 2012

  Actual Average Record
Temperature  
Mean Temperature 50 °F -  
Max Temperature 63 °F - 77 °F (1972)
Min Temperature 37 °F - 26 °F (1936)
Degree Days  
Heating Degree Days 15    
Moisture  
Dew Point 55 °F    
Average Humidity 97    
Maximum Humidity 100    
Minimum Humidity 81    
Precipitation  
Precipitation 0.41 in - - ()
Sea Level Pressure  
Sea Level Pressure 29.98 in    
Wind  
Wind Speed 6 mph (SSW)    
Max Wind Speed 15 mph    
Max Gust Speed 20 mph    
Visibility 6 miles    
Events Fog , Rain , Thunderstorm    
Averages and records for this station are not official NWS values.
T = Trace of Precipitation, MM = Missing Value Source: NWS Daily Summary

Daily Weather History Graph

Daily Weather History Graph

Search for Another Location

Airport or City:

Trip Planner

Search our weather history database for the weather conditions in past years. The results will help you decide how hot, cold, wet, or windy it might be!

Date:

Astronomy

Feb. 29, 2012 Rise Set
Actual Time 6:37 AM EST 5:59 PM EST
Civil Twilight 6:11 AM EST 6:25 PM EST
Nautical Twilight 5:40 AM EST 6:55 PM EST
Astronomical Twilight 5:10 AM EST 7:25 PM EST
Moon 10:37 AM EST (2/29) 12:33 AM EST (2/29)
Length of Visible Light 12h 14m
Length of Day
11h 21m
Waxing Crescent, 47% of the Moon is Illuminated
Feb 29
Waxing Crescent
Feb 29
First Quarter
Mar 8
Full
Mar 14
Last Quarter
Mar 22
New

Hourly Weather History & Observations

Time (EST) Temp. Windchill Dew Point Humidity Pressure Visibility Wind Dir Wind Speed Gust Speed Precip Events Conditions
12:55 AM 38.5 °F - 34.7 °F 86% 30.36 in 10.0 mi Calm Calm - N/A   Clear
1:55 AM 37.4 °F - 34.2 °F 88% 30.33 in 10.0 mi Calm Calm - N/A   Clear
2:55 AM 37.6 °F 35.1 °F 36.0 °F 94% 30.31 in 10.0 mi SSE 3.5 mph - N/A   Scattered Clouds
3:55 AM 40.5 °F - 38.3 °F 92% 30.29 in 10.0 mi Calm Calm - N/A   Mostly Cloudy
4:55 AM 44.8 °F 41.6 °F 41.7 °F 89% 30.26 in 10.0 mi SSE 5.8 mph - N/A   Overcast
5:55 AM 46.4 °F - 42.8 °F 87% 30.24 in 10.0 mi Calm Calm - N/A   Mostly Cloudy
6:55 AM 46.8 °F - 43.7 °F 89% 30.22 in 10.0 mi South 4.6 mph - N/A   Overcast
7:55 AM 49.5 °F - 45.7 °F 87% 30.19 in 10.0 mi South 5.8 mph - N/A   Mostly Cloudy
8:18 AM 50.0 °F - 46.4 °F 87% 30.17 in 10.0 mi South 8.1 mph - N/A Rain Light Rain
8:35 AM 51.8 °F - 48.2 °F 88% 30.16 in 10.0 mi South 9.2 mph - N/A   Mostly Cloudy
8:55 AM 51.8 °F - 47.8 °F 86% 30.16 in 10.0 mi SSW 6.9 mph - 0.00 in   Scattered Clouds
9:46 AM 55.4 °F - 50.0 °F 82% 30.15 in 10.0 mi SSW 11.5 mph - N/A   Overcast
9:55 AM 54.7 °F - 49.1 °F 81% 30.15 in 10.0 mi SSW 10.4 mph - 0.00 in Rain Light Rain
10:09 AM 53.6 °F - 50.0 °F 88% 30.14 in 10.0 mi SSW 9.2 mph - N/A Rain Light Rain
10:55 AM 55.0 °F - 52.5 °F 91% 30.12 in 10.0 mi SSW 4.6 mph - 0.01 in Rain Light Rain
11:27 AM 55.4 °F - 53.6 °F 94% 30.07 in 10.0 mi South 9.2 mph - N/A   Mostly Cloudy
11:28 AM 55.4 °F - 53.6 °F 94% 30.06 in 10.0 mi South 8.1 mph - N/A Rain Light Rain
11:48 AM 55.4 °F - 55.4 °F 100% 30.06 in 10.0 mi SSW 10.4 mph - N/A   Overcast
11:55 AM 56.1 °F - 54.7 °F 95% 30.05 in 10.0 mi South 6.9 mph - 0.00 in   Overcast
12:12 PM 57.2 °F - 55.4 °F 94% 30.03 in 10.0 mi South 6.9 mph - N/A Rain Light Rain
12:46 PM 57.2 °F - 57.2 °F 100% 30.01 in 5.0 mi SSW 12.7 mph - N/A Rain Light Rain
12:55 PM 57.7 °F - 56.5 °F 96% 30.01 in 3.0 mi SSW 11.5 mph - 0.04 in Rain Light Rain
1:02 PM 57.2 °F - 57.2 °F 100% 30.03 in 1.8 mi WSW 12.7 mph - N/A Rain , Thunderstorm Thunderstorms and Rain
1:05 PM 57.2 °F - 57.2 °F 100% 30.04 in 0.8 mi WSW 13.8 mph - N/A Rain , Thunderstorm Heavy Thunderstorms and Rain
1:06 PM 57.2 °F - 57.2 °F 100% 30.04 in 0.8 mi SW 12.7 mph - N/A Rain , Thunderstorm Heavy Thunderstorms and Rain
1:09 PM 57.2 °F - 57.2 °F 100% 29.99 in 0.5 mi South 13.8 mph - N/A Fog , Rain , Thunderstorm Heavy Thunderstorms and Rain
1:10 PM 57.2 °F - 57.2 °F 100% 29.99 in 0.5 mi South 15.0 mph - N/A Fog , Rain , Thunderstorm Heavy Thunderstorms and Rain
1:15 PM 57.2 °F - 57.2 °F 100% 29.98 in 1.0 mi South 12.7 mph - N/A Rain , Thunderstorm Thunderstorms and Rain
1:19 PM 57.2 °F - 57.2 °F 100% 29.99 in 1.8 mi SW 12.7 mph - N/A Rain , Thunderstorm Light Thunderstorms and Rain
1:20 PM 57.2 °F - 57.2 °F 100% 29.99 in 2.0 mi SW 12.7 mph - N/A Rain , Thunderstorm Light Thunderstorms and Rain
1:23 PM 57.2 °F - 57.2 °F 100% 30.00 in 3.0 mi SSW 12.7 mph 19.6 mph N/A Rain , Thunderstorm Light Thunderstorms and Rain
1:25 PM 57.2 °F - 57.2 °F 100% 30.00 in 4.0 mi SW 11.5 mph 19.6 mph N/A Rain Light Rain
1:36 PM 57.2 °F - 57.2 °F 100% 29.99 in 2.5 mi SW 9.2 mph 18.4 mph N/A Rain Rain
1:41 PM 57.2 °F - 57.2 °F 100% 29.99 in 3.0 mi SW 10.4 mph - N/A Rain Light Rain
1:55 PM 57.2 °F - 57.2 °F 100% 29.99 in 9.0 mi WSW 6.9 mph - 0.28 in Rain Light Rain
1:56 PM 57.2 °F - 57.2 °F 100% 30.01 in 8.0 mi West 10.4 mph - N/A Rain Light Rain
2:08 PM 57.2 °F - 57.2 °F 100% 30.01 in 3.0 mi West 6.9 mph - N/A Rain Light Rain
2:09 PM 57.2 °F - 57.2 °F 100% 30.01 in 3.0 mi West 6.9 mph - N/A Rain Light Rain
2:10 PM 57.2 °F - 57.2 °F 100% 30.01 in 4.0 mi West 6.9 mph - N/A Rain Light Rain
2:28 PM 57.2 °F - 57.2 °F 100% 29.98 in 6.0 mi SW 9.2 mph - N/A Rain Light Rain
2:35 PM 57.2 °F - 57.2 °F 100% 29.98 in 8.0 mi SW 8.1 mph - N/A   Overcast
2:55 PM 57.9 °F - 57.9 °F 100% 29.97 in 10.0 mi SW 9.2 mph - 0.03 in   Overcast
3:12 PM 59.0 °F - 59.0 °F 100% 29.94 in 10.0 mi SSW 12.7 mph - N/A   Scattered Clouds
3:55 PM 60.4 °F - 60.1 °F 99% 29.93 in 10.0 mi SSW 13.8 mph - N/A   Clear
4:55 PM 63.7 °F - 60.1 °F 88% 29.90 in 10.0 mi SW 10.4 mph - N/A   Partly Cloudy
5:55 PM 62.2 °F - 59.5 °F 91% 29.89 in 10.0 mi SSW 8.1 mph - N/A   Overcast
6:55 PM 61.0 °F - 59.5 °F 95% 29.86 in 10.0 mi South 5.8 mph - N/A   Overcast
7:55 PM 59.5 °F - 59.5 °F 100% 29.85 in 10.0 mi WNW 3.5 mph - N/A   Overcast
8:02 PM 60.8 °F - 60.8 °F 100% 29.86 in 10.0 mi NNW 5.8 mph - N/A Rain Light Rain
8:10 PM 60.8 °F - 60.8 °F 100% 29.86 in 6.0 mi NNW 5.8 mph - N/A Rain Light Rain
8:24 PM 60.8 °F - 60.8 °F 100% 29.84 in 3.0 mi NNE 3.5 mph - N/A Rain Light Rain
8:35 PM 59.0 °F - 59.0 °F 100% 29.84 in 2.5 mi ENE 4.6 mph - N/A Rain Light Rain
8:40 PM 59.0 °F - 59.0 °F 100% 29.84 in 2.0 mi ENE 3.5 mph - N/A Rain Light Rain
8:41 PM 59.0 °F - 59.0 °F 100% 29.84 in 2.0 mi ENE 3.5 mph - N/A   Overcast
8:55 PM 58.3 °F - 58.3 °F 100% 29.86 in 2.0 mi Calm Calm - 0.01 in Rain Light Rain
8:59 PM 59.0 °F - 59.0 °F 100% 29.86 in 2.5 mi West 3.5 mph - N/A Rain Light Rain
9:24 PM 57.2 °F - 57.2 °F 100% 29.85 in 2.0 mi Calm Calm - N/A Rain Light Rain
9:34 PM 57.2 °F - 57.2 °F 100% 29.85 in 2.5 mi Calm Calm - N/A Rain Light Rain
9:39 PM 59.0 °F - 59.0 °F 100% 29.85 in 3.0 mi Calm Calm - N/A Rain Light Rain
9:55 PM 57.4 °F - 57.4 °F 100% 29.85 in 3.0 mi Calm Calm - 0.01 in Rain Light Rain
9:58 PM 57.2 °F - 57.2 °F 100% 29.84 in 2.0 mi Calm Calm - N/A   Light Drizzle
10:03 PM 57.2 °F - 57.2 °F 100% 29.84 in 2.5 mi SSW 3.5 mph - N/A Rain Light Rain
10:05 PM 57.2 °F - 57.2 °F 100% 29.84 in 2.5 mi SSW 3.5 mph - N/A Rain Light Rain
10:21 PM 57.2 °F - 57.2 °F 100% 29.85 in 5.0 mi SSW 3.5 mph - N/A   Mostly Cloudy
10:25 PM 57.2 °F - 57.2 °F 100% 29.85 in 4.0 mi SSW 3.5 mph - N/A Rain Light Rain
10:29 PM 57.2 °F - 57.2 °F 100% 29.85 in 2.5 mi South 4.6 mph - N/A Rain Light Rain
10:32 PM 57.2 °F - 57.2 °F 100% 29.84 in 2.0 mi South 5.8 mph - N/A Rain Light Rain
10:42 PM 59.0 °F - 59.0 °F 100% 29.83 in 2.5 mi South 5.8 mph - N/A Rain Light Rain
10:45 PM 59.0 °F - 59.0 °F 100% 29.83 in 3.0 mi South 5.8 mph - N/A Rain Light Rain
10:55 PM 59.5 °F - 59.5 °F 100% 29.82 in 4.0 mi South 4.6 mph - 0.02 in Rain Light Rain
11:07 PM 59.0 °F - 59.0 °F 100% 29.82 in 4.0 mi SSW 4.6 mph - N/A   Mostly Cloudy
11:14 PM 59.0 °F - 59.0 °F 100% 29.81 in 4.0 mi South 4.6 mph - N/A   Mostly Cloudy
11:20 PM 60.8 °F - 60.8 °F 100% 29.81 in 4.0 mi SSW 4.6 mph - N/A Rain Light Rain
11:29 PM 60.8 °F - 60.8 °F 100% 29.81 in 3.0 mi SW 5.8 mph - N/A Rain Light Rain
11:55 PM 61.0 °F - 61.0 °F 100% 29.76 in 6.0 mi South 12.7 mph - 0.01 in Rain Light Rain
11:59 PM 60.8 °F - 60.8 °F 100% 29.75 in 8.0 mi South 11.5 mph - N/A Rain Light Rain